Weather History for KUCP - May, 2013

Change the Weather History Date:

Tuesday, May 21, 2013

  Actual Average Record
Temperature  
Mean Temperature 76 °F -  
Max Temperature 86 °F 73 °F 92 °F (1941)
Min Temperature 66 °F 46 °F 32 °F (1954)
Cooling Degree Days 11    
Growing Degree Days 26 (Base 50)    
Moisture  
Dew Point 65 °F    
Average Humidity 68    
Maximum Humidity 96    
Minimum Humidity 42    
Precipitation  
Precipitation 0.00 in - - ()
Sea Level Pressure  
Sea Level Pressure 29.92 in    
Wind  
Wind Speed 4 mph (SSW)    
Max Wind Speed 12 mph    
Max Gust Speed 18 mph    
Visibility 9 miles    
Events      
Averages and records for this station are not official NWS values.
T = Trace of Precipitation, MM = Missing Value Source: NWS Daily Summary

Daily Weather History Graph

Daily Weather History Graph

Search for Another Location

Airport or City:

Trip Planner

Search our weather history database for the weather conditions in past years. The results will help you decide how hot, cold, wet, or windy it might be!

Date:

Astronomy

May. 21, 2013 Rise Set
Actual Time 5:58 AM EDT 8:38 PM EDT
Civil Twilight 5:26 AM EDT 9:10 PM EDT
Nautical Twilight 4:46 AM EDT 9:50 PM EDT
Astronomical Twilight 4:01 AM EDT 10:36 PM EDT
Moon 4:49 PM EDT (5/21) 3:27 AM EDT (5/21)
Length of Visible Light 15h 44m
Length of Day
14h 40m
Waxing Gibbous, 84% of the Moon is Illuminated
May 21
Waxing Gibbous
May 25
Full
May 31
Last Quarter
Jun 8
New
Jun 16
First Quarter

Hourly Weather History & Observations

Time (EDT) Temp. Heat Index Dew Point Humidity Pressure Visibility Wind Dir Wind Speed Gust Speed Precip Events Conditions
12:56 AM 70.0 °F - 65.8 °F 87% 29.98 in 9.0 mi Calm Calm - N/A   Clear
1:56 AM 69.8 °F - 66.2 °F 88% 29.95 in 9.0 mi Calm Calm - N/A   Clear
2:56 AM 68.9 °F - 66.9 °F 93% 29.96 in 7.0 mi SSW 3.5 mph - N/A   Clear
3:56 AM 68.9 °F - 65.8 °F 90% 29.96 in 7.0 mi Calm Calm - N/A   Clear
4:56 AM 68.0 °F - 65.8 °F 93% 29.97 in 6.0 mi Calm Calm - N/A   Clear
5:56 AM 66.9 °F - 65.8 °F 96% 29.98 in 4.0 mi Calm Calm - N/A   Clear
6:56 AM 68.0 °F - 65.8 °F 93% 29.98 in 4.0 mi Calm Calm - N/A   Clear
7:56 AM 70.9 °F - 66.9 °F 87% 29.99 in 6.0 mi Calm Calm - N/A   Clear
8:56 AM 73.9 °F - 66.9 °F 79% 29.98 in 9.0 mi South 5.8 mph - N/A   Partly Cloudy
9:56 AM 77.9 °F - 68.0 °F 71% 29.96 in 10.0 mi SW 6.9 mph - N/A   Clear
10:56 AM 82.4 °F 85.4 °F 68.0 °F 62% 29.93 in 10.0 mi SW 10.4 mph 16.1 mph N/A   Scattered Clouds
11:56 AM 82.9 °F 85.8 °F 68.0 °F 60% 29.95 in 10.0 mi SSW 10.4 mph - N/A   Partly Cloudy
12:56 PM 84.9 °F 87.6 °F 66.9 °F 55% 29.94 in 10.0 mi SW 10.4 mph - N/A   Partly Cloudy
1:56 PM 84.9 °F 87.1 °F 65.8 °F 53% 29.92 in 10.0 mi SW 9.2 mph - N/A   Partly Cloudy
2:56 PM 86.9 °F 88.6 °F 64.9 °F 48% 29.89 in 10.0 mi SW 11.5 mph 17.3 mph N/A   Clear
3:56 PM 86.9 °F 87.8 °F 63.0 °F 45% 29.88 in 10.0 mi SW 11.5 mph 17.3 mph N/A   Partly Cloudy
4:56 PM 86.9 °F 87.2 °F 61.9 °F 43% 29.87 in 10.0 mi SSW 8.1 mph - 0.00 in   Clear
5:56 PM 86.9 °F 87.0 °F 61.0 °F 42% 29.86 in 10.0 mi SSW 9.2 mph 18.4 mph N/A   Partly Cloudy
6:56 PM 84.9 °F 85.4 °F 61.9 °F 46% 29.86 in 10.0 mi SSW 6.9 mph - N/A   Partly Cloudy
7:56 PM 82.9 °F 83.7 °F 61.9 °F 49% 29.86 in 10.0 mi SW 5.8 mph - N/A   Clear
8:56 PM 79.0 °F - 61.9 °F 56% 29.86 in 10.0 mi SW 4.6 mph - N/A   Clear
9:56 PM 75.9 °F - 61.9 °F 62% 29.88 in 10.0 mi Calm Calm - N/A   Clear
10:56 PM 73.9 °F - 63.0 °F 68% 29.88 in 10.0 mi Variable 4.6 mph - N/A   Clear
11:56 PM 72.9 °F - 63.9 °F 73% 29.89 in 10.0 mi SSW 5.8 mph - N/A   Clear